Regional Weather Roundup
Issued by NWS

Home | Current Version | Previous Version | Graphics & Text | Print | Product List | Glossary On
Versions: 1 2 3 4 5 6 7 8 9 10 11 12 13 14 15 16 17 18 19 20 21 22 23 24 25 26 27 28 29 30 31 32 33 34 35 36 37 38 39 40 41 42 43 44 45 46 47 48 49 50
000
ASUS45 KCYS 270010
RWRWY

WYOMING REGIONAL WEATHER ROUNDUP
NATIONAL WEATHER SERVICE CHEYENNE WY
600 PM MDT SUN APR 26 2015

NOTE:  "FAIR" INDICATES FEW OR NO CLOUDS BELOW 12,000 FEET
WITH NO SIGNIFICANT WEATHER AND/OR OBSTRUCTIONS TO VISIBILITY.

WYZ001-270100-
YELLOWSTONE NATIONAL PARK

CITY           SKY/WX    TMP DP  RH WIND       PRES   REMARKS
LK YELLOWSTONE   N/A     37  33  85 W6        30.06R WCI  32
6HR MIN TEMP:  35; 6HR MAX TEMP:  40; 6HR PCP:  0.01;

W YELLOWSTONE  NOT AVBL

$$
WYZ002>013-054>058-071-098>099-270100-
NORTHERN WYOMING

CITY           SKY/WX    TMP DP  RH WIND       PRES   REMARKS
JACKSON        CLOUDY    45  32  61 NW7       30.01R
CODY           CLOUDY    37  34  87 N17G24    30.09R WCI  28
GREYBULL       CLOUDY    46  35  65 NW20      30.05R
6HR MIN TEMP:  43; 6HR MAX TEMP:  49; 6HR PCP:  0.03;

WORLAND        CLOUDY    46  38  73 N13       30.05R
6HR MIN TEMP:  41; 6HR MAX TEMP:  47; 6HR PCP:  0.01;

SHERIDAN       CLOUDY    42  38  85 N9        30.12R
6HR MIN TEMP:  39; 6HR MAX TEMP:  43; 6HR PCP:  0.24;

BUFFALO        LGT RAIN  40  37  89 N13G23    30.10R WCI  32
6HR MIN TEMP:  34; 6HR MAX TEMP:  41; 6HR PCP:  0.20;

GILLETTE       LGT RAIN  41  39  93 N14       30.06R
6HR MIN TEMP:  41; 6HR MAX TEMP:  43; 6HR PCP:  0.35;

HULETT         RAIN      45  43  93 N3        30.07R
NEWCASTLE      FAIR      45  39  81 MISG      30.04R

$$
WYZ014>020-022>026-101>103-270100-
CENTRAL WYOMING

CITY           SKY/WX    TMP DP  RH WIND       PRES   REMARKS
BIG PINEY      PTSUNNY   47  32  56 NW24G30   29.98R
6HR MIN TEMP:  38; 6HR MAX TEMP:  51; 6HR PCP:  0.02;

PINEDALE       DRIZZLE   39  37  93 NE10      30.00R WCI  32
DUBOIS         CLOUDY    37  32  81 SE12      30.02R WCI  30
LANDER         CLOUDY    43  37  79 E7        30.02R
6HR MIN TEMP:  39; 6HR MAX TEMP:  44; 6HR PCP:  0.01;

RIVERTON       CLOUDY    43  36  76 N10       30.03R
6HR MIN TEMP:  39; 6HR MAX TEMP:  45; 6HR PCP:  0.01;

CASPER         CLOUDY    36  34  92 N17       30.03R WCI  26
6HR MIN TEMP:  36; 6HR MAX TEMP:  41; 6HR PCP: TRACE;

DOUGLAS        LGT RAIN  46  42  86 SE9       30.00R FOG
6HR MIN TEMP:  45; 6HR MAX TEMP:  49; 6HR PCP:  0.04;


$$
WYZ021-027>030-104>119-270100-
SOUTHERN WYOMING

CITY           SKY/WX    TMP DP  RH WIND       PRES   REMARKS
EVANSTON       CLOUDY    38  31  76 NW9       30.04R WCI  31
6HR MIN TEMP:  33; 6HR MAX TEMP:  39;

KEMMERER       CLOUDY    43  32  65 W16G26    30.00R
FORT BRIDGER   CLOUDY    43  34  70 W17       30.05R
ROCK SPRINGS   LGT RAIN  41  37  86 E15       29.98R
6HR MIN TEMP:  39; 6HR MAX TEMP:  47; 6HR PCP:  0.25;

DIXON          CLOUDY    45  41  85 N18       29.93R
RAWLINS        CLOUDY    39  36  89 N18       29.93R WCI  30
6HR MIN TEMP:  39; 6HR MAX TEMP:  55; 6HR PCP:  0.04;

SARATOGA       CLOUDY    41  37  87 MISG      29.87R
LARAMIE        CLOUDY    42  34  73 SE12      29.94R
6HR MIN TEMP:  41; 6HR MAX TEMP:  47; 6HR PCP: TRACE;

CHEYENNE       LGT RAIN  39  37  92 E13       29.97R FOG     WCI  31
6HR MIN TEMP:  39; 6HR MAX TEMP:  44; 6HR PCP:  0.02;

TORRINGTON     LGT RAIN  44  42  93 E15       30.00R FOG
6HR MIN TEMP:  44; 6HR MAX TEMP:  46; 6HR PCP:  0.19;

PINE BLUFFS    CLOUDY    39  39 100 E13       29.98S WCI  32

$$



USA.gov is the U.S. government's official web portal to all federal, state and local government web resources and services.